When you browse on this site, cookies collect data to enhance your experience and personalize the content and advertising you see.
Visit our Privacy Policy to learn more. By continuing to use the site, you agree to this use of cookies and data.
  • In Lithuania
  • List of Countries
  • For 7 days
  • Water Temperature
  • Satellite Maps
  • Weather Map
  • Weather Widgets
  • user-avatar
    Login

    Hourly Weather Canillo

    Today, 18 December, Tuesday

    Time Temperature Precipitation Wind Pressure Humidity
    00:00 -2°C° 0 mm 1 mps 621 mmHg 70%
    01:00 -2°C° 0 mm 1 mps 621 mmHg 69%
    02:00 -2°C° 0 mm 1 mps 621 mmHg 69%
    03:00 -2°C° 0 mm 1 mps 620 mmHg 68%
    04:00 -4°C° 0 mm 2 mps 620 mmHg 66%
    05:00 -4°C° 0 mm 2 mps 620 mmHg 64%
    06:00 -4°C° 0 mm 2 mps 619 mmHg 62%
    07:00 -3°C° 0 mm 2 mps 619 mmHg 59%
    08:00 -2°C° 0 mm 2 mps 620 mmHg 56%
    09:00 +1°C° 0 mm 2 mps 620 mmHg 52%
    10:00 +2°C° 0 mm 2 mps 620 mmHg 51%
    11:00 +2°C° 0 mm 3 mps 620 mmHg 49%
    12:00 +4°C° 0 mm 3 mps 621 mmHg 47%
    13:00 +3°C° 0 mm 3 mps 620 mmHg 49%
    14:00 +4°C° 0 mm 2 mps 620 mmHg 51%
    15:00 +3°C° 0 mm 2 mps 619 mmHg 53%
    16:00 +2°C° 0 mm 2 mps 619 mmHg 54%
    17:00 -1°C° 0 mm 2 mps 618 mmHg 55%
    18:00 -2°C° 0 mm 2 mps 617 mmHg 55%
    19:00 -2°C° 0 mm 2 mps 617 mmHg 55%
    20:00 -2°C° 0 mm 2 mps 617 mmHg 56%
    21:00 -2°C° 0 mm 2 mps 617 mmHg 56%
    22:00 0°C° 0 mm 1 mps 617 mmHg 57%
    23:00 +1°C° 0 mm 1 mps 617 mmHg 59%

    Tomorrow, 19 December, Wednesday

    Time Temperature Precipitation Wind Pressure Humidity
    00:00 +1°C° 0 mm 1 mps 618 mmHg 61%
    01:00 +1°C° 0 mm 1 mps 617 mmHg 64%
    02:00 +1°C° 0 mm 1 mps 617 mmHg 67%
    03:00 0°C° 0 mm 1 mps 617 mmHg 70%
    04:00 0°C° 0 mm 1 mps 617 mmHg 72%
    05:00 0°C° 0 mm 1 mps 617 mmHg 75%
    06:00 0°C° 0 mm 1 mps 616 mmHg 78%
    07:00 0°C° 0 mm 1 mps 617 mmHg 77%
    08:00 +1°C° 0 mm 1 mps 617 mmHg 77%
    09:00 +2°C° 0 mm 1 mps 618 mmHg 77%
    10:00 +2°C° 0 mm 1 mps 618 mmHg 73%
    11:00 +2°C° 0 mm 2 mps 618 mmHg 68%
    12:00 +3°C° 0 mm 2 mps 618 mmHg 63%
    13:00 +3°C° 0.2 mm 2 mps 618 mmHg 66%
    14:00 +2°C° 0.2 mm 2 mps 618 mmHg 69%
    15:00 +2°C° 0.2 mm 2 mps 618 mmHg 72%
    16:00 +1°C° 0 mm 2 mps 618 mmHg 77%
    17:00 -2°C° 0 mm 2 mps 618 mmHg 81%
    18:00 -3°C° 0 mm 2 mps 618 mmHg 86%
    19:00 -3°C° 0 mm 2 mps 618 mmHg 85%
    20:00 -4°C° 0 mm 2 mps 618 mmHg 84%
    21:00 -4°C° 0 mm 2 mps 619 mmHg 83%
    22:00 -4°C° 0 mm 2 mps 619 mmHg 81%
    23:00 -5°C° 0 mm 2 mps 619 mmHg 79%

    Day after tomorrow, 20 December, Thursday

    Time Temperature Precipitation Wind Pressure Humidity
    00:00 -3°C° 0 mm 1 mps 619 mmHg 76%
    01:00 -3°C° 0 mm 1 mps 619 mmHg 76%
    02:00 -2°C° 0 mm 1 mps 619 mmHg 75%
    03:00 -2°C° 0 mm 1 mps 619 mmHg 75%
    04:00 -2°C° 0 mm 1 mps 619 mmHg 76%
    05:00 -2°C° 0 mm 1 mps 619 mmHg 76%
    06:00 -2°C° 0 mm 1 mps 620 mmHg 77%
    07:00 -2°C° 0 mm 1 mps 620 mmHg 75%
    08:00 -1°C° 0 mm 1 mps 621 mmHg 73%
    09:00 0°C° 0 mm 1 mps 622 mmHg 70%
    10:00 +1°C° 0 mm 1 mps 622 mmHg 64%
    11:00 +2°C° 0 mm 1 mps 623 mmHg 57%
    12:00 +4°C° 0 mm 1 mps 623 mmHg 51%
    13:00 +3°C° 0 mm 1 mps 623 mmHg 54%
    14:00 +3°C° 0 mm 1 mps 623 mmHg 57%
    15:00 +3°C° 0 mm 1 mps 623 mmHg 60%
    16:00 +1°C° 0 mm 1 mps 622 mmHg 65%
    17:00 0°C° 0 mm 1 mps 622 mmHg 71%
    18:00 -2°C° 0 mm 1 mps 622 mmHg 76%
    19:00 -2°C° 0 mm 1 mps 622 mmHg 75%
    20:00 -2°C° 0 mm 1 mps 622 mmHg 73%
    21:00 -2°C° 0 mm 1 mps 623 mmHg 72%
    22:00 -2°C° 0 mm 1 mps 623 mmHg 71%
    23:00 -2°C° 0 mm 1 mps 623 mmHg 71%

    21 December, Friday

    Time Temperature Precipitation Wind Pressure Humidity
    00:00 -2°C° 0 mm 1 mps 623 mmHg 71%
    01:00 -2°C° 0 mm 1 mps 622 mmHg 71%
    02:00 -2°C° 0 mm 1 mps 622 mmHg 72%
    03:00 -2°C° 0 mm 1 mps 622 mmHg 73%
    04:00 -2°C° 0 mm 1 mps 622 mmHg 73%
    05:00 -2°C° 0 mm 1 mps 622 mmHg 73%
    06:00 -2°C° 0 mm 1 mps 622 mmHg 73%
    07:00 0°C° 0 mm 1 mps 623 mmHg 69%
    08:00 +1°C° 0 mm 1 mps 623 mmHg 65%
    09:00 +2°C° 0 mm 1 mps 624 mmHg 61%
    10:00 +4°C° 0 mm 1 mps 624 mmHg 57%
    11:00 +6°C° 0 mm 1 mps 625 mmHg 53%
    12:00 +8°C° 0 mm 1 mps 626 mmHg 49%
    13:00 +7°C° 0 mm 1 mps 625 mmHg 54%
    14:00 +6°C° 0 mm 1 mps 625 mmHg 58%
    15:00 +5°C° 0 mm 0 mps 624 mmHg 62%
    16:00 +5°C° 0 mm 1 mps 624 mmHg 63%
    17:00 +3°C° 0 mm 1 mps 624 mmHg 64%
    18:00 +2°C° 0 mm 1 mps 624 mmHg 66%
    19:00 +2°C° 0 mm 1 mps 624 mmHg 64%
    20:00 +2°C° 0 mm 1 mps 624 mmHg 62%
    21:00 +2°C° 0 mm 1 mps 624 mmHg 60%
    22:00 +2°C° 0 mm 1 mps 624 mmHg 59%
    23:00 +2°C° 0 mm 1 mps 623 mmHg 58%

    22 December, Saturday

    Time Temperature Precipitation Wind Pressure Humidity
    00:00 +2°C° 0 mm 1 mps 623 mmHg 57%
    01:00 +2°C° 0 mm 1 mps 623 mmHg 55%
    02:00 +2°C° 0 mm 1 mps 623 mmHg 54%
    03:00 +2°C° 0 mm 1 mps 623 mmHg 52%
    04:00 +2°C° 0 mm 1 mps 623 mmHg 53%
    05:00 +1°C° 0 mm 2 mps 623 mmHg 53%
    06:00 +1°C° 0 mm 2 mps 623 mmHg 54%
    07:00 +2°C° 0 mm 2 mps 624 mmHg 57%
    08:00 +4°C° 0 mm 1 mps 624 mmHg 60%
    09:00 +5°C° 0 mm 1 mps 625 mmHg 63%
    10:00 +7°C° 0 mm 1 mps 626 mmHg 62%
    11:00 +9°C° 0 mm 1 mps 626 mmHg 61%
    12:00 +10°C° 0 mm 1 mps 627 mmHg 60%
    13:00 +9°C° 0 mm 0 mps 626 mmHg 64%
    14:00 +8°C° 0 mm 0 mps 626 mmHg 67%
    15:00 +7°C° 0 mm 0 mps 625 mmHg 71%
    16:00 +6°C° 0 mm 0 mps 625 mmHg 75%
    17:00 +6°C° 0 mm 1 mps 625 mmHg 78%
    18:00 +4°C° 0 mm 1 mps 624 mmHg 82%
    19:00 +4°C° 0 mm 1 mps 624 mmHg 82%
    20:00 +4°C° 0 mm 1 mps 625 mmHg 82%
    21:00 +3°C° 0 mm 1 mps 625 mmHg 82%
    22:00 +3°C° 0 mm 1 mps 624 mmHg 79%
    23:00 +3°C° 0 mm 1 mps 624 mmHg 76%

    23 December, Sunday

    Time Temperature Precipitation Wind Pressure Humidity
    00:00 +3°C° 0 mm 1 mps 624 mmHg 73%
    01:00 +3°C° 0 mm 1 mps 624 mmHg 72%
    02:00 +2°C° 0 mm 1 mps 624 mmHg 71%
    03:00 +2°C° 0 mm 1 mps 623 mmHg 70%
    04:00 +2°C° 0 mm 1 mps 623 mmHg 70%
    05:00 +2°C° 0 mm 1 mps 623 mmHg 70%
    06:00 +2°C° 0 mm 1 mps 623 mmHg 71%
    07:00 +3°C° 0 mm 1 mps 623 mmHg 68%
    08:00 +4°C° 0 mm 1 mps 624 mmHg 65%
    09:00 +5°C° 0 mm 1 mps 624 mmHg 62%
    10:00 +7°C° 0 mm 1 mps 625 mmHg 59%
    11:00 +9°C° 0 mm 1 mps 625 mmHg 55%
    12:00 +11°C° 0 mm 1 mps 626 mmHg 52%
    13:00 +10°C° 0 mm 1 mps 625 mmHg 55%
    14:00 +10°C° 0 mm 1 mps 625 mmHg 58%
    15:00 +9°C° 0 mm 1 mps 624 mmHg 62%
    16:00 +7°C° 0 mm 1 mps 624 mmHg 64%
    17:00 +6°C° 0 mm 1 mps 623 mmHg 65%
    18:00 +4°C° 0 mm 1 mps 623 mmHg 67%
    19:00 +4°C° 0 mm 1 mps 623 mmHg 63%
    20:00 +4°C° 0 mm 1 mps 623 mmHg 58%
    21:00 +4°C° 0 mm 1 mps 623 mmHg 54%
    22:00 +4°C° 0 mm 1 mps 623 mmHg 51%
    23:00 +3°C° 0 mm 1 mps 623 mmHg 47%
    Show more